GFSWCAN_prec_sndepth_156.txt.gz
Snowfall_Accumulation
nan nan nan nan nan nan nan nan nan nan nan nan nan nan nan nan nan 0.0 0.0 0.0 0.0 0.0 0.0 0.0 0.0 0.0 0.0 0.0 0.0 0.0 0.1 0.0 0.0 0.0 0.0 0.0 0.0 0.0 0.0 0.0 0.0 0.0 0.1 0.2 0.1 0.4 2.7 0.0 0.0 0.0 0.0 0.0 0.0 0.0
nan nan nan nan nan nan nan nan nan nan nan nan nan nan nan nan nan nan 0.0 0.0 0.0 0.0 0.0 0.0 0.0 0.0 0.0 0.0 0.0 0.0 0.0 0.0 0.0 0.1 0.1 0.0 0.0 0.0 0.0 0.0 0.0 0.0 0.0 0.0 0.0 0.0 0.0 0.0 0.0 0.0 0.0 0.0 0.0 0.0
nan nan nan nan nan nan nan nan nan nan nan nan nan nan nan nan nan nan 0.0 0.0 0.0 0.0 0.0 0.0 0.0 0.0 0.0 0.0 0.0 0.0 0.0 0.0 0.0 0.0 0.1 0.0 0.2 0.0 0.0 0.0 0.0 0.0 0.0 0.0 0.0 0.0 0.0 0.0 0.0 0.0 0.0 0.0 0.0 0.0
nan nan nan nan nan nan nan nan nan nan nan nan nan nan nan nan nan nan 0.0 0.0 0.0 0.0 0.2 0.0 0.0 0.0 0.0 0.0 0.0 0.0 0.0 0.0 0.0 0.0 0.0 0.1 0.2 0.0 0.0 0.0 0.0 0.0 0.0 0.0 0.0 0.0 0.0 0.0 0.0 0.0 0.0 0.0 0.0 0.0
nan nan nan nan nan nan nan nan nan nan nan nan nan nan nan nan nan nan 0.0 0.0 0.0 0.0 0.2 0.1 0.0 0.0 0.0 0.0 0.0 0.0 0.0 0.0 0.0 0.1 0.0 0.3 0.0 0.0 0.0 0.1 0.1 0.0 0.0 0.0 0.0 0.0 0.0 0.0 0.0 0.0 0.0 0.0 0.0 0.0
nan nan nan nan nan nan nan nan nan nan nan nan nan nan nan nan nan 0.0 0.0 0.0 0.0 0.0 0.3 1.0 0.0 0.0 0.0 0.0 0.0 0.0 0.0 0.0 0.0 0.1 0.1 0.0 0.0 0.0 2.9 0.7 0.0 0.0 0.0 0.0 0.0 0.0 0.0 0.0 0.0 0.0 0.0 0.0 0.0 0.0
nan nan nan nan nan nan nan nan nan nan nan nan nan nan nan nan 0.0 0.0 0.0 0.0 nan 0.0 0.2 2.2 0.7 0.0 0.0 0.0 0.0 0.0 0.0 0.0 0.0 0.1 0.1 0.0 0.0 0.0 1.1 0.9 0.0 0.0 0.0 0.0 0.0 0.0 0.0 0.0 0.0 0.0 0.0 0.0 0.0 0.0
nan nan nan nan nan nan nan nan nan nan nan nan nan nan nan nan nan 0.0 0.0 nan nan 0.0 0.1 4.4 2.3 0.0 0.0 0.0 0.0 0.0 0.0 0.0 0.0 0.0 0.1 0.1 0.0 0.1 2.1 0.0 0.0 0.0 0.0 0.0 0.0 0.0 0.0 0.0 0.0 0.0 0.0 0.0 0.0 0.0
nan nan nan nan nan nan nan nan nan nan nan nan nan nan 0.0 0.0 0.0 0.0 nan nan 0.0 0.0 1.2 1.8 2.2 3.3 0.0 0.0 0.0 0.0 0.0 0.7 0.0 0.3 0.2 0.0 0.1 1.3 0.0 0.0 0.0 0.0 0.0 0.0 0.0 0.0 0.0 0.0 0.0 0.0 0.0 0.0 0.0 0.0
nan nan nan nan nan nan nan nan nan nan nan nan 0.0 0.0 0.2 0.0 nan nan 0.0 0.1 0.4 0.1 0.1 1.7 0.0 1.0 0.0 0.0 0.1 0.1 0.3 0.7 3.9 0.1 0.0 1.0 0.2 0.0 0.0 0.0 0.0 0.0 0.0 0.0 0.0 0.0 0.0 0.0 0.0 0.0 0.0 0.0 0.0 0.0
nan nan nan nan nan nan nan nan nan nan nan 0.0 0.0 0.2 0.0 nan 0.0 0.0 2.8 4.8 1.7 3.3 0.4 0.2 0.1 0.4 0.0 1.2 0.6 0.3 2.7 2.2 5.4 0.3 0.5 1.6 0.7 0.1 0.0 0.0 0.0 0.0 0.0 0.0 0.0 0.0 0.0 0.0 0.0 0.0 0.0 0.0 0.0 0.0
nan nan nan nan nan nan nan nan nan 0.0 0.0 0.0 0.1 0.0 0.0 0.4 3.7 8.0 8.2 3.0 1.9 1.7 0.5 0.5 0.3 0.0 0.1 0.0 0.7 2.6 3.7 5.0 5.4 0.3 4.8 2.4 0.1 0.0 0.0 0.0 0.0 0.0 0.0 0.0 0.0 0.0 0.0 0.0 0.0 0.0 0.0 0.0 0.0 0.0
nan nan nan nan nan nan nan nan nan nan nan 0.0 0.4 4.4 6.4 10.1 40.9 15.3 10.1 6.8 5.9 0.8 0.9 0.6 1.5 0.1 0.5 0.1 2.9 3.5 9.7 6.3 0.3 7.8 0.7 0.4 0.1 0.0 0.5 0.1 0.0 0.0 0.0 0.0 0.0 0.0 0.0 0.0 0.0 0.0 0.0 0.0 0.0 0.0
nan nan nan nan nan nan nan nan nan 0.0 0.2 2.3 13.4 46.2 14.2 13.7 3.1 1.6 1.0 1.4 0.5 0.9 0.5 0.3 0.8 0.8 0.5 3.7 0.9 9.1 1.3 2.7 13.0 8.4 2.8 0.8 0.4 0.2 0.1 0.2 0.1 0.1 0.0 0.0 0.0 0.0 0.0 0.0 0.0 0.0 0.0 0.0 0.0 0.0
nan nan nan nan nan nan nan nan nan 0.0 0.3 12.1 11.4 30.7 12.1 0.9 1.6 1.3 2.1 1.4 0.8 0.3 0.3 0.9 1.3 0.6 4.0 8.2 2.0 3.2 9.5 9.3 1.2 1.8 0.7 0.9 0.4 0.5 0.6 0.2 0.1 0.0 0.0 0.0 0.0 0.0 0.1 0.0 0.0 0.0 0.0 0.0 0.0 0.0
nan nan 0.0 nan nan nan nan nan 0.0 0.0 5.5 15.7 16.4 13.7 1.3 4.2 5.4 3.4 3.4 1.8 0.5 0.4 0.3 1.0 5.8 9.8 7.5 6.0 9.8 7.9 11.4 5.2 2.6 2.6 1.6 0.8 0.5 0.4 0.2 0.0 0.0 0.0 0.0 0.0 0.0 0.1 0.1 0.0 0.0 0.0 0.0 0.0 0.0 0.0
nan 0.0 nan nan nan nan nan 0.2 0.3 11.5 17.4 22.6 21.5 0.7 1.3 2.5 2.3 0.6 0.2 0.0 0.0 0.7 4.9 5.9 14.9 7.1 4.4 10.2 6.7 2.6 7.8 1.7 1.7 1.2 0.5 0.1 0.2 0.0 0.0 0.0 0.0 0.0 0.0 0.0 0.0 0.1 0.1 0.1 0.1 0.0 0.1 0.0 0.0 0.0
0.0 0.0 nan nan nan nan 0.2 1.4 12.9 20.7 30.3 10.9 7.7 2.1 0.1 0.0 0.2 0.1 0.1 0.2 0.3 1.3 2.6 8.1 6.5 14.9 13.9 10.7 5.2 1.5 1.4 1.3 0.7 0.3 0.2 0.1 0.0 0.0 0.0 0.0 0.0 0.0 0.0 0.0 0.2 0.3 0.3 0.3 0.2 0.1 0.2 0.3 0.5 0.5
0.0 0.0 nan nan 0.0 1.2 10.1 19.5 8.7 30.0 22.2 4.2 1.4 0.8 0.4 0.0 0.0 0.0 0.0 0.0 0.2 0.3 4.2 7.9 14.1 15.8 2.6 1.5 1.8 2.1 1.9 0.8 0.1 0.0 0.0 0.0 0.0 0.0 0.0 0.4 0.3 0.3 0.4 0.2 0.0 0.0 0.0 0.0 0.0 0.0 0.0 0.0 0.0 0.0
nan nan nan nan nan 8.8 34.3 28.4 9.0 12.4 15.6 5.3 2.8 4.0 1.6 1.1 0.1 0.1 0.1 0.2 0.7 5.0 13.8 19.6 3.2 0.0 0.1 0.2 0.4 0.3 0.2 0.0 0.0 0.0 0.0 0.0 0.0 0.4 0.4 0.5 0.0 0.1 0.0 0.1 0.3 nan 0.3 0.0 0.0 0.0 0.0 0.0 0.1 0.1
nan nan nan 0.0 1.2 7.8 15.9 21.1 18.0 14.1 8.0 6.2 5.2 3.1 4.8 3.6 5.3 7.3 6.6 0.9 9.2 15.0 10.5 0.4 0.1 0.0 0.1 0.2 0.0 0.0 0.0 0.0 0.0 0.0 0.0 0.3 0.0 0.4 0.5 0.7 1.0 0.0 0.0 0.0 0.0 0.0 0.0 0.0 0.0 0.3 5.0 0.1 0.0 0.1
0.8 nan 2.6 1.7 23.9 33.3 27.0 12.4 12.6 8.5 14.2 9.6 8.7 5.5 14.6 18.0 15.0 11.9 4.5 18.2 16.0 3.6 0.4 0.1 0.2 0.2 0.2 0.1 0.1 0.1 0.0 0.0 0.0 0.0 nan 0.0 0.4 0.6 0.6 0.9 1.7 3.7 3.0 3.2 1.4 0.6 0.3 0.3 0.3 0.3 0.4 0.5 0.4 0.4
nan 1.7 10.7 15.6 34.9 37.8 41.6 7.8 16.2 15.5 15.9 17.7 14.0 15.0 17.9 18.1 10.9 4.4 16.6 8.9 3.9 0.4 0.3 0.4 0.2 0.1 0.2 0.0 0.1 0.1 0.1 0.1 0.0 0.0 0.0 0.0 0.0 0.5 1.1 0.5 0.9 4.5 4.8 1.3 0.8 1.0 1.8 nan 0.5 0.6 0.7 0.7 1.0 1.1
nan 21.6 36.3 34.1 30.7 37.3 17.2 22.8 7.7 10.9 12.9 13.8 18.0 16.2 16.6 12.4 8.3 17.8 15.2 5.6 1.4 1.2 1.2 0.6 0.8 0.8 0.9 1.6 0.9 0.3 0.2 0.2 0.3 0.2 0.0 0.5 1.0 0.1 0.0 0.2 0.0 0.3 0.6 0.6 1.1 1.7 1.3 1.3 nan 1.5 2.1 2.6 3.0 2.8
46.8 67.2 32.7 54.4 24.2 23.0 13.9 11.4 14.9 8.5 11.0 9.7 11.9 14.6 14.2 9.8 15.6 17.8 10.0 7.4 2.9 2.5 1.8 1.2 1.1 1.0 2.0 1.8 0.2 0.3 0.1 0.6 0.5 0.7 0.5 0.6 0.3 0.3 1.8 0.9 0.1 0.2 0.8 5.3 1.6 1.8 2.4 2.7 2.3 3.0 3.2 3.3 4.2 4.5
63.3 30.8 43.3 15.6 19.0 10.2 7.9 10.3 8.2 9.1 7.0 11.2 11.5 8.9 11.5 10.9 16.4 18.5 6.3 5.6 5.6 4.2 4.1 4.0 3.4 1.9 0.5 0.5 0.4 0.4 0.2 0.5 0.6 0.9 0.9 1.0 1.0 3.7 5.3 2.7 2.6 1.1 0.7 0.6 3.1 3.8 3.4 3.5 4.2 4.6 4.7 4.1 nan 5.0
48.2 30.4 10.0 1.9 2.3 0.9 2.6 2.5 2.2 5.3 10.2 11.4 9.6 8.7 10.9 20.7 14.2 3.8 2.2 2.4 2.9 2.4 1.9 1.8 1.3 1.1 0.9 0.8 0.6 0.7 0.7 1.5 1.9 1.5 0.7 1.3 1.1 0.8 3.1 5.2 4.0 0.9 1.3 3.1 3.3 3.1 4.0 3.8 4.6 5.4 6.0 6.5 5.7 5.5
8.9 5.2 7.4 9.5 4.4 3.7 3.4 4.0 5.2 7.4 6.3 2.7 3.6 11.3 12.6 8.9 6.1 3.0 3.1 3.2 5.4 5.6 6.2 4.0 2.7 2.0 2.6 2.4 2.4 1.6 3.1 3.2 4.1 5.0 4.6 3.2 3.1 3.1 2.9 2.3 2.9 nan 2.7 3.9 4.1 4.2 4.7 4.3 6.2 5.9 5.8 7.0 6.2 5.2
9.2 6.7 4.3 9.8 7.9 8.6 10.0 8.4 6.4 3.0 0.3 2.0 6.3 5.2 4.2 1.8 5.4 5.5 2.7 4.6 7.0 8.1 8.0 6.9 7.2 6.8 6.1 4.6 5.1 6.7 6.1 6.0 6.7 5.9 4.0 3.7 4.1 5.8 6.0 5.3 7.3 7.5 6.4 7.4 nan nan 6.1 7.0 6.8 6.3 6.4 6.3 5.9 7.9
8.4 8.3 6.9 7.8 7.9 7.7 8.2 3.9 7.8 6.7 2.3 2.3 2.4 3.5 3.4 5.0 5.9 4.4 6.1 6.9 8.8 11.0 9.6 10.1 9.3 12.8 11.2 9.1 10.6 8.2 7.6 7.4 6.0 4.7 8.2 7.0 5.4 5.6 9.3 10.1 9.0 8.9 8.7 8.8 7.8 8.1 nan 9.5 nan 9.9 10.2 9.4 8.6 8.9
6.3 10.0 8.9 8.5 10.1 12.2 9.7 5.9 8.1 3.0 6.6 10.4 8.9 8.8 7.5 8.8 5.3 4.4 5.0 5.1 7.6 11.6 12.4 14.1 13.9 14.1 10.2 10.4 12.1 11.1 9.9 8.1 9.7 8.9 6.3 7.4 9.6 10.0 11.2 11.0 10.7 10.7 9.9 8.7 8.5 8.2 9.1 9.9 10.2 11.4 9.6 10.5 9.3 9.0
9.5 12.3 10.8 9.4 14.9 16.2 12.6 14.9 15.4 13.6 13.8 13.4 13.4 13.8 11.3 9.8 7.7 6.5 4.3 10.3 10.7 9.1 nan 10.0 8.1 6.8 6.6 6.7 5.7 6.8 nan 7.6 9.5 9.4 9.9 8.8 8.4 8.6 8.6 9.3 11.3 10.6 10.3 9.7 9.6 9.2 10.7 12.6 12.0 11.8 10.3 11.1 10.4 8.6
19.1 15.6 16.9 12.6 19.5 17.6 16.3 16.3 10.7 20.6 16.1 15.1 12.1 10.9 11.6 6.2 4.8 5.2 4.3 6.7 5.5 5.8 7.0 7.6 7.6 7.9 7.9 8.5 7.5 7.3 nan 8.6 9.2 nan nan nan nan nan 9.7 9.2 9.0 8.6 8.1 8.4 9.4 10.4 11.6 12.4 13.2 10.2 10.7 11.6 10.9 9.5

GFSWCAN_prec_sndepth_159.txt.gz
Snowfall_Accumulation
nan nan nan nan nan nan nan nan nan nan nan nan nan nan nan nan nan 0.0 0.0 0.0 0.0 0.0 0.0 0.0 0.0 0.0 0.0 0.0 0.0 0.0 0.1 0.0 0.0 0.0 0.0 0.0 0.0 0.0 0.0 0.0 0.0 0.0 0.1 0.2 0.1 0.4 2.8 0.0 0.0 0.0 0.0 0.0 0.0 0.0
nan nan nan nan nan nan nan nan nan nan nan nan nan nan nan nan nan nan 0.0 0.0 0.0 0.0 0.0 0.0 0.0 0.0 0.0 0.0 0.0 0.0 0.0 0.0 0.0 0.1 0.1 0.0 0.0 0.0 0.0 0.0 0.0 0.0 0.0 0.0 0.0 0.0 0.0 0.0 0.0 0.0 0.0 0.0 0.0 0.0
nan nan nan nan nan nan nan nan nan nan nan nan nan nan nan nan nan nan 0.0 0.0 0.0 0.0 0.0 0.0 0.0 0.0 0.0 0.0 0.0 0.0 0.0 0.0 0.0 0.0 0.1 0.0 0.2 0.0 0.0 0.0 0.0 0.0 0.0 0.0 0.0 0.0 0.0 0.0 0.0 0.0 0.0 0.0 0.0 0.0
nan nan nan nan nan nan nan nan nan nan nan nan nan nan nan nan nan nan 0.0 0.0 0.0 0.0 0.2 0.0 0.0 0.0 0.0 0.0 0.0 0.0 0.0 0.0 0.0 0.0 0.0 0.1 0.3 0.0 0.0 0.0 0.0 0.0 0.0 0.0 0.0 0.0 0.0 0.0 0.0 0.0 0.0 0.0 0.0 0.0
nan nan nan nan nan nan nan nan nan nan nan nan nan nan nan nan nan nan 0.0 0.0 0.0 0.0 0.2 0.1 0.0 0.0 0.0 0.0 0.0 0.0 0.0 0.0 0.0 0.1 0.0 0.3 0.0 0.0 0.0 0.0 0.1 0.0 0.0 0.0 0.0 0.0 0.0 0.0 0.0 0.0 0.0 0.0 0.0 0.0
nan nan nan nan nan nan nan nan nan nan nan nan nan nan nan nan nan 0.0 0.0 0.0 0.0 0.0 0.3 1.0 0.0 0.0 0.0 0.0 0.0 0.0 0.0 0.0 0.0 0.1 0.1 0.0 0.0 0.0 3.1 0.7 0.0 0.0 0.0 0.0 0.0 0.0 0.0 0.0 0.0 0.0 0.0 0.0 0.0 0.0
nan nan nan nan nan nan nan nan nan nan nan nan nan nan nan nan 0.0 0.0 0.0 0.0 nan 0.0 0.2 2.2 0.7 0.0 0.0 0.0 0.0 0.0 0.0 0.0 0.0 0.1 0.1 0.0 0.0 0.0 1.3 1.1 0.0 0.0 0.0 0.0 0.0 0.0 0.0 0.0 0.0 0.0 0.0 0.0 0.0 0.0
nan nan nan nan nan nan nan nan nan nan nan nan nan nan nan nan nan 0.0 0.0 nan nan 0.0 0.1 4.4 2.2 0.0 0.0 0.0 0.0 0.0 0.0 0.0 0.0 0.0 0.1 0.1 0.0 0.1 2.6 0.0 0.0 0.0 0.0 0.0 0.0 0.0 0.0 0.0 0.0 0.0 0.0 0.0 0.0 0.0
nan nan nan nan nan nan nan nan nan nan nan nan nan nan 0.0 0.0 0.0 0.0 nan nan 0.0 0.0 1.2 1.8 2.2 3.3 0.0 0.0 0.0 0.0 0.0 0.7 0.0 0.3 0.2 0.0 0.1 1.5 0.0 0.0 0.0 0.0 0.0 0.0 0.0 0.0 0.0 0.0 0.0 0.0 0.0 0.0 0.0 0.0
nan nan nan nan nan nan nan nan nan nan nan nan 0.0 0.0 0.2 0.0 nan nan 0.0 0.1 0.4 0.1 0.1 1.7 0.0 1.0 0.0 0.0 0.1 0.1 0.3 0.7 3.9 0.1 0.0 1.1 0.2 0.0 0.0 0.0 0.0 0.0 0.0 0.0 0.0 0.1 0.1 0.1 0.0 0.0 0.0 0.0 0.0 0.0
nan nan nan nan nan nan nan nan nan nan nan 0.0 0.0 0.2 0.0 nan 0.0 0.0 2.8 4.8 1.7 3.3 0.4 0.2 0.1 0.4 0.0 1.2 0.6 0.3 2.7 2.2 5.5 0.3 0.5 1.6 0.7 0.1 0.0 0.0 0.0 0.0 0.0 0.0 0.0 0.0 0.0 0.0 0.0 0.0 0.0 0.0 0.0 0.0
nan nan nan nan nan nan nan nan nan 0.0 0.0 0.0 0.1 0.0 0.0 0.4 3.7 8.0 8.2 3.0 1.9 1.7 0.5 0.5 0.3 0.0 0.1 0.0 0.8 2.6 3.7 5.0 5.4 0.3 5.0 2.4 0.1 0.0 0.0 0.0 0.0 0.0 0.0 0.0 0.0 0.0 0.0 0.0 0.0 0.0 0.0 0.0 0.0 0.0
nan nan nan nan nan nan nan nan nan nan nan 0.0 0.4 4.4 6.4 10.1 40.7 15.3 10.1 6.8 6.0 0.8 1.0 0.6 1.5 0.1 0.5 0.1 2.9 3.5 9.8 6.4 0.3 8.0 0.7 0.4 0.1 0.0 0.4 0.1 0.0 0.0 0.0 0.0 0.0 0.0 0.0 0.0 0.0 0.0 0.0 0.0 0.0 0.0
nan nan nan nan nan nan nan nan nan 0.0 0.2 2.3 13.4 46.0 14.2 13.7 3.1 1.6 1.0 1.4 0.5 0.9 0.5 0.3 0.8 0.8 0.5 3.7 0.9 9.2 1.4 2.7 13.2 8.6 2.8 0.8 0.5 0.2 0.1 0.2 0.1 0.1 0.0 0.0 0.0 0.0 0.0 0.0 0.0 0.0 0.0 0.0 0.0 0.0
nan nan nan nan nan nan nan nan nan 0.0 0.3 12.1 11.4 30.6 12.1 0.9 1.6 1.4 2.1 1.4 0.8 0.3 0.3 0.9 1.3 0.6 4.1 8.2 2.0 3.2 9.5 9.3 1.2 1.8 0.7 0.9 0.4 0.5 0.6 0.2 0.1 0.0 0.0 0.0 0.0 0.0 0.0 0.0 0.0 0.0 0.0 0.0 0.0 0.0
nan nan 0.0 nan nan nan nan nan 0.0 0.0 5.5 15.7 16.4 13.7 1.3 4.2 5.4 3.4 3.4 1.8 0.5 0.4 0.3 1.0 5.8 9.9 7.5 6.0 9.8 7.9 11.4 5.2 2.6 2.6 1.6 0.8 0.6 0.4 0.2 0.0 0.0 0.0 0.0 0.0 0.0 0.1 0.1 0.0 0.0 0.0 0.0 0.0 0.0 0.0
nan 0.0 nan nan nan nan nan 0.2 0.3 11.5 17.3 22.6 21.5 0.7 1.4 2.5 2.3 0.6 0.2 0.0 0.0 0.7 4.9 5.9 14.8 7.1 4.4 10.2 6.7 2.6 7.8 1.7 1.7 1.2 0.5 0.1 0.2 0.0 0.0 0.0 0.0 0.0 0.0 0.0 0.0 0.1 0.1 0.1 0.1 0.0 0.1 0.0 0.0 0.0
0.1 0.0 nan nan nan nan 0.3 1.7 13.4 21.0 30.5 10.9 7.7 2.1 0.1 0.0 0.2 0.1 0.1 0.2 0.3 1.3 2.6 8.1 6.5 14.9 13.9 10.7 5.2 1.5 1.4 1.2 0.7 0.3 0.2 0.0 0.0 0.0 0.0 0.0 0.0 0.0 0.0 0.0 0.2 0.3 0.3 0.3 0.2 0.1 0.2 0.3 0.5 0.5
0.0 0.0 nan nan 0.0 1.2 10.8 19.8 8.7 29.9 22.1 4.2 1.4 0.8 0.4 0.0 0.0 0.0 0.0 0.0 0.2 0.3 4.2 7.9 14.0 15.7 2.6 1.5 1.7 2.1 1.9 0.8 0.1 0.0 0.0 0.0 0.0 0.0 0.0 0.4 0.3 0.3 0.4 0.2 0.0 0.0 0.0 0.0 0.0 0.0 0.0 0.0 0.0 0.0
nan nan nan nan nan 8.9 34.3 28.5 9.0 12.4 15.5 5.3 2.8 4.0 1.6 1.1 0.1 0.1 0.1 0.2 0.7 5.0 13.8 19.5 3.2 0.0 0.1 0.2 0.4 0.3 0.2 0.0 0.0 0.0 0.0 0.0 0.0 0.4 0.4 0.5 0.0 0.1 0.0 0.1 0.3 nan 0.3 0.0 0.0 0.0 0.0 0.0 0.1 0.1
nan nan nan 0.0 1.2 7.7 15.9 21.0 17.9 14.1 8.0 6.2 5.2 3.2 4.8 3.6 5.3 7.3 6.6 0.9 9.2 15.0 10.5 0.4 0.1 0.0 0.1 0.2 0.0 0.0 0.0 0.0 0.0 0.0 0.0 0.3 0.0 0.4 0.5 0.7 1.0 0.0 0.0 0.0 0.0 0.0 0.0 0.0 0.0 0.3 4.9 0.1 0.0 0.1
1.0 nan 2.4 1.6 23.7 33.2 26.9 12.4 12.6 8.5 14.1 9.6 8.8 5.5 14.6 18.0 14.9 11.9 4.5 18.1 16.0 3.6 0.4 0.1 0.2 0.2 0.2 0.1 0.0 0.1 0.0 0.0 0.0 0.0 nan 0.0 0.4 0.6 0.6 0.9 1.7 3.7 3.0 3.2 1.4 0.6 0.3 0.3 0.3 0.3 0.4 0.5 0.4 0.4
nan 1.7 10.9 15.3 34.8 37.9 42.1 7.9 16.2 15.4 15.8 17.7 14.0 14.9 17.9 18.1 10.9 4.4 16.6 8.9 3.9 0.4 0.3 0.4 0.2 0.1 0.2 0.0 0.1 0.1 0.1 0.1 0.0 0.0 0.0 0.0 0.0 0.5 1.1 0.5 0.9 4.5 4.7 1.2 0.8 0.9 1.7 nan 0.5 0.6 0.7 0.7 1.0 1.1
nan 21.9 36.3 34.1 30.7 37.8 17.5 22.9 8.0 11.0 13.1 13.9 18.0 16.2 16.6 12.3 8.3 17.8 15.2 5.6 1.4 1.2 1.2 0.6 0.8 0.8 0.9 1.6 0.9 0.3 0.2 0.2 0.3 0.2 0.0 0.5 1.0 0.1 0.0 0.2 0.0 0.3 0.6 0.6 1.1 1.7 1.3 1.3 nan 1.4 2.1 2.6 3.0 2.8
47.1 68.3 33.4 54.8 24.6 23.0 13.9 11.4 14.9 8.6 11.1 9.8 12.3 14.7 14.1 9.8 15.5 17.8 10.0 7.4 2.9 2.5 1.8 1.2 1.1 1.0 2.0 1.7 0.2 0.3 0.1 0.6 0.5 0.7 0.5 0.6 0.3 0.3 1.7 0.9 0.1 0.2 0.8 5.3 1.6 1.8 2.4 2.6 2.3 3.0 3.2 3.3 4.1 4.5
63.6 31.3 43.3 15.6 19.0 10.2 7.9 10.3 8.3 9.1 7.0 11.2 11.5 8.9 11.5 10.9 16.4 18.4 6.3 5.6 5.6 4.2 4.1 3.9 3.4 1.9 0.5 0.5 0.4 0.4 0.2 0.5 0.6 0.9 0.9 1.0 1.0 3.7 5.3 2.7 2.6 1.1 0.7 0.6 3.1 3.8 3.4 3.5 4.2 4.5 4.7 4.1 nan 5.1
48.0 30.2 10.0 1.9 2.3 0.9 2.6 2.5 2.2 5.3 10.2 11.4 9.6 8.7 10.9 20.7 14.2 3.8 2.2 2.4 2.9 2.4 1.9 1.8 1.3 1.1 0.8 0.7 0.6 0.7 0.6 1.4 1.9 1.5 0.7 1.3 1.1 0.8 3.0 5.1 4.0 0.9 1.3 3.1 3.3 3.1 4.0 3.9 4.7 5.5 6.0 6.5 5.7 5.5
8.9 5.2 7.4 9.5 4.4 3.8 3.4 4.0 5.2 7.4 6.3 2.7 3.6 11.3 12.6 8.9 6.1 3.0 3.1 3.2 5.4 5.6 6.2 4.0 2.7 2.0 2.6 2.3 2.3 1.5 3.1 3.2 4.1 5.0 4.6 3.1 3.1 3.1 2.9 2.3 2.9 nan 2.9 4.3 4.7 4.9 5.3 5.0 6.7 6.2 6.0 7.1 6.3 5.2
9.2 6.7 4.3 9.8 7.9 8.6 10.0 8.4 6.5 3.0 0.3 2.0 6.3 5.2 4.2 1.8 5.4 5.5 2.7 4.6 7.0 8.1 8.0 6.8 7.2 6.8 6.1 4.6 5.1 6.7 6.1 6.0 6.8 6.1 4.0 3.7 4.1 5.8 6.0 5.3 7.4 7.7 6.6 7.6 nan nan 6.3 7.5 7.2 6.7 6.8 6.4 6.0 8.1
8.4 8.3 6.9 7.8 7.9 7.7 8.2 3.9 7.8 6.7 2.3 2.3 2.4 3.5 3.3 4.9 5.8 4.4 6.0 6.9 8.8 10.9 9.6 10.1 9.3 12.8 11.2 9.1 10.6 8.2 7.5 7.4 6.0 5.0 9.1 7.4 5.6 5.7 9.4 10.3 9.2 9.1 8.9 9.1 8.0 8.1 nan 9.5 nan 10.1 10.4 9.6 8.8 8.9
6.3 10.0 8.9 8.5 10.1 12.2 9.7 5.9 8.1 3.0 6.6 10.4 8.9 8.8 7.4 8.7 5.3 4.4 5.0 5.1 7.6 11.6 12.4 14.1 13.9 14.1 10.2 10.4 12.1 11.1 9.8 8.1 9.6 8.9 6.3 7.7 9.8 10.2 11.4 11.1 10.8 10.9 10.2 8.9 8.6 8.3 9.2 10.0 10.3 11.5 9.6 10.5 9.3 9.0
9.5 12.3 10.8 9.4 14.9 16.2 12.6 14.9 15.4 13.6 13.8 13.3 13.3 13.8 11.3 9.8 7.7 6.5 4.3 10.3 10.7 9.1 nan 10.0 8.1 6.8 6.6 6.7 5.7 6.8 nan 7.6 9.5 9.6 10.2 9.2 8.8 8.9 8.8 9.5 11.4 10.8 10.5 9.9 9.8 9.3 10.8 12.8 12.2 11.8 10.4 11.1 10.5 8.6
19.0 15.5 16.9 12.7 19.4 17.6 16.3 16.2 10.7 20.6 16.0 15.1 12.0 10.9 11.6 6.2 4.8 5.2 4.3 6.7 5.5 5.8 7.0 7.6 7.6 7.9 7.9 8.5 7.5 7.3 nan 8.7 9.4 nan nan nan nan nan 10.1 9.4 9.1 8.7 8.3 8.5 9.5 10.5 11.7 12.5 13.3 10.3 10.8 11.6 10.9 9.5

GFSWCAN_prec_sndepth_162.txt.gz
Snowfall_Accumulation
nan nan nan nan nan nan nan nan nan nan nan nan nan nan nan nan nan 0.0 0.0 0.0 0.0 0.0 0.0 0.0 0.0 0.0 0.0 0.0 0.0 0.0 0.1 0.0 0.0 0.0 0.0 0.0 0.0 0.0 0.0 0.0 0.0 0.0 0.1 0.2 0.1 0.5 2.8 0.0 0.0 0.0 0.0 0.0 0.0 0.0
nan nan nan nan nan nan nan nan nan nan nan nan nan nan nan nan nan nan 0.0 0.0 0.0 0.0 0.0 0.0 0.0 0.0 0.0 0.0 0.0 0.0 0.0 0.0 0.0 0.1 0.1 0.0 0.0 0.0 0.0 0.0 0.0 0.0 0.0 0.0 0.0 0.0 0.0 0.0 0.0 0.0 0.0 0.0 0.0 0.0
nan nan nan nan nan nan nan nan nan nan nan nan nan nan nan nan nan nan 0.0 0.0 0.0 0.0 0.0 0.0 0.0 0.0 0.0 0.0 0.0 0.0 0.0 0.0 0.0 0.0 0.1 0.0 0.2 0.0 0.0 0.0 0.0 0.0 0.0 0.0 0.0 0.0 0.0 0.0 0.0 0.0 0.0 0.0 0.0 0.0
nan nan nan nan nan nan nan nan nan nan nan nan nan nan nan nan nan nan 0.0 0.0 0.0 0.0 0.2 0.0 0.0 0.0 0.0 0.0 0.0 0.0 0.0 0.0 0.0 0.0 0.0 0.1 0.2 0.0 0.0 0.0 0.0 0.0 0.0 0.0 0.0 0.0 0.0 0.0 0.0 0.0 0.0 0.0 0.0 0.0
nan nan nan nan nan nan nan nan nan nan nan nan nan nan nan nan nan nan 0.0 0.0 0.0 0.0 0.2 0.1 0.0 0.0 0.0 0.0 0.0 0.0 0.0 0.0 0.0 0.1 0.0 0.3 0.0 0.0 0.0 0.0 0.2 0.0 0.0 0.0 0.0 0.0 0.0 0.0 0.0 0.0 0.0 0.0 0.0 0.0
nan nan nan nan nan nan nan nan nan nan nan nan nan nan nan nan nan 0.0 0.0 0.0 0.0 0.0 0.3 1.0 0.0 0.0 0.0 0.0 0.0 0.0 0.0 0.0 0.0 0.1 0.1 0.0 0.0 0.0 3.8 0.8 0.0 0.0 0.0 0.0 0.0 0.0 0.0 0.0 0.0 0.0 0.0 0.0 0.0 0.0
nan nan nan nan nan nan nan nan nan nan nan nan nan nan nan nan 0.0 0.0 0.0 0.0 nan 0.0 0.2 2.3 0.7 0.0 0.0 0.0 0.0 0.0 0.0 0.0 0.0 0.1 0.1 0.0 0.0 0.0 1.2 1.3 0.0 0.0 0.0 0.0 0.0 0.0 0.0 0.0 0.0 0.0 0.0 0.0 0.0 0.0
nan nan nan nan nan nan nan nan nan nan nan nan nan nan nan nan nan 0.0 0.0 nan nan 0.0 0.1 4.4 2.3 0.0 0.0 0.0 0.0 0.0 0.0 0.0 0.0 0.0 0.1 0.1 0.0 0.1 2.7 0.0 0.0 0.0 0.0 0.0 0.0 0.0 0.0 0.0 0.0 0.0 0.0 0.0 0.0 0.0
nan nan nan nan nan nan nan nan nan nan nan nan nan nan 0.0 0.0 0.0 0.0 nan nan 0.0 0.0 1.2 1.8 2.2 3.3 0.0 0.0 0.0 0.0 0.0 0.7 0.0 0.3 0.2 0.0 0.2 1.5 0.0 0.0 0.0 0.0 0.0 0.0 0.0 0.0 0.0 0.0 0.0 0.0 0.0 0.0 0.0 0.0
nan nan nan nan nan nan nan nan nan nan nan nan 0.0 0.0 0.2 0.0 nan nan 0.0 0.1 0.4 0.1 0.1 1.7 0.0 1.0 0.0 0.1 0.1 0.1 0.3 0.7 3.9 0.1 0.0 1.2 0.2 0.0 0.0 0.0 0.0 0.0 0.0 0.0 0.0 0.1 0.1 0.1 0.0 0.0 0.0 0.0 0.0 0.0
nan nan nan nan nan nan nan nan nan nan nan 0.0 0.0 0.2 0.0 nan 0.0 0.0 2.8 4.9 1.7 3.3 0.4 0.2 0.1 0.4 0.0 1.2 0.6 0.3 2.7 2.2 5.6 0.3 0.5 1.6 0.7 0.1 0.0 0.0 0.0 0.0 0.0 0.0 0.0 0.0 0.0 0.0 0.0 0.0 0.0 0.0 0.0 0.0
nan nan nan nan nan nan nan nan nan 0.0 0.0 0.0 0.1 0.0 0.0 0.4 3.7 8.0 8.2 3.0 2.0 1.7 0.5 0.5 0.3 0.0 0.1 0.0 0.8 2.6 3.7 5.0 5.4 0.3 5.1 2.4 0.1 0.0 0.0 0.0 0.0 0.0 0.0 0.0 0.0 0.0 0.0 0.0 0.0 0.0 0.0 0.0 0.0 0.0
nan nan nan nan nan nan nan nan nan nan nan 0.0 0.4 4.4 6.4 10.1 40.5 15.3 10.1 6.8 6.0 0.8 1.0 0.7 1.6 0.1 0.5 0.1 2.9 3.5 9.9 6.4 0.3 8.2 0.7 0.4 0.1 0.1 0.4 0.1 0.0 0.0 0.0 0.0 0.0 0.0 0.0 0.0 0.0 0.0 0.0 0.0 0.0 0.0
nan nan nan nan nan nan nan nan nan 0.0 0.2 2.3 13.4 45.8 14.2 13.7 3.1 1.6 1.0 1.4 0.5 0.9 0.5 0.3 0.8 0.8 0.5 3.8 0.8 9.2 1.4 2.8 13.3 8.8 2.8 0.8 0.5 0.2 0.1 0.2 0.2 0.1 0.0 0.0 0.0 0.0 0.0 0.0 0.0 0.0 0.0 0.0 0.0 0.0
nan nan nan nan nan nan nan nan nan 0.0 0.3 12.0 11.4 30.5 12.1 0.9 1.6 1.4 2.1 1.4 0.8 0.3 0.3 0.9 1.3 0.6 4.1 8.3 2.0 3.3 9.6 9.3 1.2 1.8 0.7 0.9 0.4 0.5 0.6 0.2 0.1 0.0 0.0 0.0 0.0 0.0 0.0 0.0 0.0 0.0 0.0 0.0 0.0 0.0
nan nan 0.0 nan nan nan nan nan 0.0 0.0 5.5 15.7 16.4 13.7 1.3 4.2 5.4 3.4 3.5 1.9 0.5 0.4 0.3 1.0 5.8 9.9 7.5 6.1 9.8 7.9 11.4 5.2 2.6 2.6 1.6 0.8 0.6 0.4 0.2 0.0 0.0 0.0 0.0 0.0 0.0 0.1 0.1 0.0 0.0 0.0 0.0 0.0 0.0 0.0
nan 0.0 nan nan nan nan nan 0.4 0.4 11.6 17.3 22.6 21.5 0.7 1.4 2.5 2.3 0.6 0.2 0.0 0.0 0.7 5.0 5.9 14.8 7.1 4.4 10.2 6.7 2.6 7.8 1.7 1.7 1.2 0.5 0.1 0.2 0.0 0.0 0.0 0.0 0.0 0.0 0.0 0.0 0.1 0.1 0.1 0.1 0.0 0.1 0.0 0.0 0.0
0.1 0.0 nan nan nan nan 0.9 2.7 14.2 21.3 30.7 10.9 7.7 2.1 0.1 0.0 0.2 0.1 0.1 0.2 0.3 1.3 2.6 8.1 6.5 14.9 13.9 10.7 5.2 1.5 1.4 1.2 0.7 0.3 0.2 0.0 0.0 0.0 0.0 0.0 0.0 0.0 0.0 0.0 0.1 0.3 0.3 0.3 0.2 0.1 0.2 0.3 0.5 0.5
0.0 0.0 nan nan 0.0 2.1 11.5 20.8 8.8 29.9 22.1 4.2 1.4 0.8 0.4 0.0 0.0 0.0 0.0 0.0 0.2 0.3 4.2 7.9 14.0 15.7 2.6 1.5 1.7 2.0 1.9 0.8 0.1 0.0 0.0 0.0 0.0 0.0 0.0 0.4 0.3 0.3 0.4 0.2 0.0 0.0 0.0 0.0 0.0 0.0 0.0 0.0 0.0 0.0
nan nan nan nan nan 10.1 35.0 28.8 9.0 12.4 15.5 5.3 2.8 4.0 1.6 1.1 0.1 0.1 0.1 0.2 0.7 5.1 13.8 19.5 3.2 0.0 0.1 0.2 0.4 0.3 0.2 0.0 0.0 0.0 0.0 0.0 0.0 0.4 0.4 0.5 0.0 0.1 0.0 0.1 0.3 nan 0.3 0.0 0.0 0.0 0.0 0.0 0.1 0.1
nan nan nan 0.1 3.3 8.3 16.0 21.0 17.9 14.1 8.0 6.2 5.2 3.2 4.8 3.6 5.3 7.3 6.6 0.9 9.2 15.0 10.5 0.4 0.1 0.0 0.1 0.2 0.0 0.0 0.0 0.0 0.0 0.0 0.0 0.2 0.0 0.4 0.5 0.7 0.9 0.0 0.0 0.0 0.0 0.0 0.0 0.0 0.0 0.3 4.9 0.1 0.0 0.1
0.9 nan 3.3 2.4 24.5 33.3 26.8 12.4 12.6 8.5 14.1 9.6 8.8 5.5 14.6 18.0 14.9 11.9 4.5 18.1 15.9 3.6 0.4 0.1 0.2 0.2 0.2 0.1 0.0 0.0 0.0 0.0 0.0 0.0 nan 0.0 0.4 0.6 0.6 0.9 1.6 3.7 3.0 3.1 1.4 0.6 0.3 0.3 0.3 0.3 0.4 0.5 0.4 0.4
nan 2.2 11.7 15.6 34.9 37.7 41.9 7.9 16.2 15.4 15.8 17.7 14.1 14.9 17.8 18.1 10.9 4.4 16.6 8.9 3.9 0.4 0.3 0.4 0.2 0.1 0.2 0.0 0.1 0.1 0.1 0.1 0.0 0.0 0.0 0.0 0.0 0.5 1.1 0.5 0.9 4.5 4.7 1.2 0.8 0.9 1.7 nan 0.5 0.6 0.7 0.7 1.0 1.1
nan 23.6 36.9 33.9 30.6 37.5 17.6 23.1 8.3 11.1 13.1 13.9 18.0 16.2 16.6 12.3 8.3 17.8 15.2 5.6 1.4 1.2 1.2 0.5 0.8 0.8 0.9 1.6 0.9 0.3 0.2 0.2 0.3 0.2 0.0 0.5 1.0 0.1 0.0 0.2 0.0 0.3 0.6 0.5 1.0 1.6 1.3 1.3 nan 1.4 2.0 2.6 3.0 2.8
48.7 69.1 33.3 54.5 24.5 23.0 13.9 11.6 15.0 8.7 11.1 9.8 12.3 14.7 14.1 9.8 15.5 17.8 10.0 7.4 2.9 2.4 1.8 1.2 1.1 1.0 2.0 1.7 0.2 0.3 0.1 0.6 0.5 0.7 0.5 0.6 0.3 0.3 1.7 0.8 0.1 0.2 0.8 5.2 1.6 1.8 2.3 2.6 2.2 3.0 3.2 3.3 4.1 4.5
63.8 31.6 43.1 15.6 19.0 10.2 7.9 10.3 8.3 9.1 7.0 11.2 11.6 8.9 11.5 11.0 16.4 18.4 6.3 5.6 5.6 4.2 4.1 3.9 3.4 1.9 0.5 0.5 0.4 0.4 0.2 0.5 0.6 0.9 0.9 1.0 1.0 3.6 5.2 2.6 2.6 1.1 0.6 0.6 3.1 3.8 3.3 3.5 4.2 4.5 4.7 4.1 nan 5.1
48.2 30.2 9.9 1.9 2.3 0.9 2.6 2.5 2.2 5.3 10.2 11.4 9.6 8.7 10.9 20.6 14.2 3.8 2.2 2.4 2.9 2.4 1.9 1.8 1.3 1.1 0.8 0.7 0.6 0.6 0.6 1.4 1.9 1.5 0.7 1.3 1.1 0.8 3.0 5.2 4.4 0.9 1.3 3.2 3.4 3.4 4.3 4.1 4.9 5.6 6.1 6.5 5.7 5.6
9.0 5.3 7.4 9.5 4.4 3.8 3.4 4.0 5.2 7.4 6.3 2.7 3.6 11.3 12.6 8.9 6.1 3.0 3.1 3.2 5.4 5.6 6.2 4.0 2.7 2.0 2.6 2.3 2.3 1.5 3.1 3.2 4.1 5.0 4.6 3.1 3.1 3.1 2.9 2.3 3.0 nan 3.6 4.7 5.2 5.4 5.7 5.3 7.0 6.5 6.2 7.3 6.4 5.2
9.2 6.7 4.3 9.8 7.9 8.6 10.0 8.4 6.5 3.0 0.3 2.0 6.3 5.2 4.2 1.8 5.4 5.5 2.7 4.6 7.0 8.1 8.0 6.8 7.2 6.8 6.1 4.6 5.1 6.7 6.1 6.0 6.8 6.3 4.1 3.7 4.1 5.8 6.0 5.4 7.6 7.8 6.8 7.8 nan nan 6.5 7.9 7.6 7.2 7.2 6.7 6.2 8.3
8.4 8.3 6.9 7.8 7.9 7.7 8.2 3.9 7.8 6.7 2.3 2.3 2.4 3.5 3.3 4.9 5.8 4.4 6.0 6.9 8.8 10.9 9.5 10.1 9.3 12.8 11.2 9.1 10.6 8.2 7.5 7.4 6.0 5.3 10.0 7.9 5.7 5.7 9.4 10.4 9.4 9.3 9.0 9.2 8.1 8.1 nan 9.5 nan 10.1 10.5 9.7 8.9 9.0
6.3 10.0 8.9 8.5 10.1 12.2 9.7 5.9 8.1 3.0 6.6 10.4 8.9 8.7 7.3 8.6 5.3 4.4 5.0 5.1 7.6 11.6 12.3 14.1 13.9 14.1 10.2 10.4 12.1 11.1 9.8 8.1 9.6 8.8 6.4 8.0 10.0 10.2 11.4 11.1 10.9 11.2 10.4 9.2 8.7 8.4 9.3 10.1 10.5 11.6 9.7 10.6 9.3 9.1
9.5 12.3 10.7 9.4 14.8 16.1 12.6 14.8 15.4 13.6 13.7 13.3 13.3 13.8 11.2 9.8 7.7 6.5 4.3 10.3 10.7 9.1 nan 10.0 8.1 6.7 6.6 6.7 5.7 6.7 nan 7.6 9.6 9.9 10.5 9.5 9.2 9.0 8.9 9.7 11.6 11.1 10.7 10.1 9.9 9.5 10.9 12.9 12.3 11.9 10.4 11.1 10.5 8.6
19.0 15.5 16.8 12.7 19.4 17.6 16.2 16.2 10.7 20.5 16.0 15.1 12.0 10.9 11.5 6.2 4.8 5.2 4.3 6.7 5.5 5.8 7.0 7.6 7.6 7.9 7.9 8.5 7.5 7.3 nan 8.7 9.5 nan nan nan nan nan 10.5 9.7 9.3 8.9 8.5 8.6 9.6 10.5 11.8 12.6 13.4 10.4 10.8 11.7 10.9 9.6

GFSWCAN_prec_sndepth_165.txt.gz
Snowfall_Accumulation
nan nan nan nan nan nan nan nan nan nan nan nan nan nan nan nan nan 0.0 0.0 0.0 0.0 0.0 0.0 0.0 0.0 0.0 0.0 0.0 0.0 0.0 0.1 0.0 0.0 0.0 0.0 0.0 0.0 0.0 0.0 0.0 0.0 0.0 0.1 0.2 0.1 0.5 2.8 0.0 0.0 0.0 0.0 0.0 0.0 0.0
nan nan nan nan nan nan nan nan nan nan nan nan nan nan nan nan nan nan 0.0 0.0 0.0 0.0 0.0 0.0 0.0 0.0 0.0 0.0 0.0 0.0 0.0 0.0 0.0 0.1 0.1 0.0 0.0 0.0 0.0 0.0 0.0 0.0 0.0 0.0 0.0 0.0 0.0 0.0 0.0 0.0 0.0 0.0 0.0 0.0
nan nan nan nan nan nan nan nan nan nan nan nan nan nan nan nan nan nan 0.0 0.0 0.0 0.0 0.0 0.0 0.0 0.0 0.0 0.0 0.0 0.0 0.0 0.0 0.0 0.0 0.1 0.0 0.2 0.0 0.0 0.0 0.0 0.0 0.0 0.0 0.0 0.0 0.0 0.0 0.0 0.0 0.0 0.0 0.0 0.0
nan nan nan nan nan nan nan nan nan nan nan nan nan nan nan nan nan nan 0.0 0.0 0.0 0.0 0.2 0.0 0.0 0.0 0.0 0.0 0.0 0.0 0.0 0.0 0.0 0.0 0.0 0.1 0.4 0.0 0.1 0.0 0.0 0.0 0.0 0.0 0.0 0.0 0.0 0.0 0.0 0.0 0.0 0.0 0.0 0.0
nan nan nan nan nan nan nan nan nan nan nan nan nan nan nan nan nan nan 0.0 0.0 0.0 0.0 0.2 0.1 0.0 0.0 0.0 0.0 0.0 0.0 0.0 0.0 0.0 0.1 0.0 0.4 0.0 0.0 0.0 0.0 0.3 0.0 0.0 0.0 0.0 0.0 0.0 0.0 0.0 0.0 0.0 0.0 0.0 0.0
nan nan nan nan nan nan nan nan nan nan nan nan nan nan nan nan nan 0.0 0.0 0.0 0.0 0.0 0.3 1.0 0.0 0.0 0.0 0.0 0.0 0.0 0.0 0.0 0.0 0.1 0.1 0.0 0.0 0.0 4.3 0.9 0.0 0.0 0.0 0.0 0.0 0.0 0.0 0.0 0.0 0.0 0.0 0.0 0.0 0.0
nan nan nan nan nan nan nan nan nan nan nan nan nan nan nan nan 0.0 0.0 0.0 0.0 nan 0.0 0.2 2.3 0.7 0.0 0.0 0.0 0.0 0.0 0.0 0.0 0.0 0.1 0.1 0.0 0.0 0.0 1.6 1.4 0.0 0.0 0.0 0.0 0.0 0.0 0.0 0.0 0.0 0.0 0.0 0.0 0.0 0.0
nan nan nan nan nan nan nan nan nan nan nan nan nan nan nan nan nan 0.0 0.0 nan nan 0.0 0.1 4.6 2.3 0.0 0.0 0.0 0.0 0.0 0.0 0.0 0.0 0.0 0.1 0.1 0.0 0.1 2.8 0.0 0.0 0.0 0.0 0.0 0.0 0.0 0.0 0.0 0.0 0.0 0.0 0.0 0.0 0.0
nan nan nan nan nan nan nan nan nan nan nan nan nan nan 0.0 0.0 0.0 0.0 nan nan 0.0 0.0 1.2 1.9 2.2 3.3 0.0 0.0 0.0 0.0 0.0 0.7 0.0 0.3 0.2 0.0 0.2 1.5 0.0 0.0 0.0 0.0 0.0 0.0 0.0 0.0 0.0 0.0 0.0 0.0 0.0 0.0 0.0 0.0
nan nan nan nan nan nan nan nan nan nan nan nan 0.0 0.0 0.2 0.0 nan nan 0.0 0.1 0.4 0.1 0.2 1.7 0.0 1.0 0.0 0.1 0.1 0.1 0.3 0.7 3.9 0.1 0.0 1.3 0.2 0.0 0.0 0.0 0.0 0.0 0.0 0.0 0.0 0.1 0.1 0.1 0.0 0.0 0.0 0.0 0.0 0.0
nan nan nan nan nan nan nan nan nan nan nan 0.0 0.0 0.2 0.0 nan 0.0 0.0 2.9 4.9 1.7 3.3 0.4 0.2 0.1 0.4 0.0 1.2 0.6 0.3 2.7 2.2 5.6 0.3 0.5 1.6 0.7 0.1 0.0 0.0 0.0 0.0 0.0 0.0 0.0 0.0 0.0 0.0 0.0 0.0 0.0 0.0 0.0 0.0
nan nan nan nan nan nan nan nan nan 0.0 0.0 0.0 0.1 0.0 0.0 0.4 3.7 8.0 8.2 3.0 2.0 1.7 0.5 0.5 0.3 0.0 0.1 0.0 0.8 2.6 3.7 5.0 5.4 0.3 5.2 2.5 0.1 0.0 0.0 0.0 0.0 0.0 0.0 0.0 0.0 0.0 0.0 0.0 0.0 0.0 0.0 0.0 0.0 0.0
nan nan nan nan nan nan nan nan nan nan nan 0.0 0.4 4.4 6.4 10.1 40.3 15.3 10.1 6.8 6.0 0.8 1.0 0.7 1.6 0.1 0.6 0.1 2.9 3.6 9.9 6.5 0.3 8.4 0.7 0.4 0.1 0.1 0.5 0.1 0.0 0.0 0.0 0.0 0.0 0.0 0.0 0.0 0.0 0.0 0.0 0.0 0.0 0.0
nan nan nan nan nan nan nan nan nan 0.0 0.2 2.3 13.4 45.6 14.2 13.7 3.1 1.6 1.0 1.4 0.5 0.9 0.5 0.3 0.8 0.8 0.5 3.8 0.9 9.3 1.4 2.8 13.4 8.8 2.9 0.8 0.5 0.2 0.1 0.2 0.2 0.1 0.1 0.1 0.0 0.0 0.0 0.0 0.0 0.0 0.0 0.0 0.0 0.0
nan nan nan nan nan nan nan nan nan 0.0 0.3 12.0 11.4 30.3 12.1 0.9 1.6 1.4 2.1 1.4 0.8 0.3 0.3 1.0 1.4 0.6 4.1 8.3 2.0 3.3 9.7 9.3 1.2 1.8 0.7 0.9 0.4 0.5 0.6 0.2 0.1 0.1 0.0 0.0 0.0 0.0 0.1 0.0 0.0 0.0 0.0 0.0 0.0 0.0
nan nan 0.0 nan nan nan nan nan 0.1 0.6 5.6 15.7 16.4 13.7 1.3 4.2 5.4 3.4 3.5 1.9 0.5 0.4 0.3 1.1 5.8 9.9 7.5 6.1 9.9 7.9 11.4 5.2 2.6 2.6 1.6 0.8 0.6 0.4 0.2 0.0 0.0 0.0 0.0 0.0 0.0 0.1 0.1 0.0 0.0 0.0 0.0 0.0 0.0 0.0
nan 0.0 nan nan nan nan nan 0.4 1.2 12.2 17.4 22.6 21.4 0.7 1.4 2.5 2.3 0.6 0.2 0.0 0.0 0.9 5.1 5.9 14.8 7.1 4.5 10.3 6.8 2.6 7.9 1.7 1.7 1.2 0.5 0.1 0.2 0.0 0.0 0.0 0.0 0.0 0.0 0.0 0.0 0.1 0.1 0.1 0.1 0.0 0.1 0.0 0.0 0.0
0.1 0.0 nan nan nan nan 2.5 4.0 14.8 21.6 30.7 10.9 7.7 2.1 0.1 0.0 0.2 0.1 0.1 0.2 0.4 1.4 2.7 8.1 6.5 14.9 13.8 10.7 5.2 1.5 1.4 1.2 0.7 0.3 0.2 0.0 0.0 0.0 0.0 0.0 0.0 0.0 0.0 0.0 0.1 0.3 0.3 0.3 0.1 0.1 0.2 0.3 0.4 0.5
0.0 0.0 nan nan 0.0 2.6 13.5 23.1 10.0 30.3 22.1 4.2 1.4 0.8 0.4 0.0 0.0 0.0 0.0 0.0 0.2 0.3 4.2 8.0 14.0 15.7 2.6 1.4 1.7 2.0 1.9 0.8 0.1 0.0 0.0 0.0 0.0 0.0 0.0 0.4 0.3 0.3 0.4 0.2 0.0 0.0 0.0 0.0 0.0 0.0 0.0 0.0 0.0 0.0
nan nan nan nan nan 10.6 36.1 30.0 9.9 12.5 15.5 5.3 2.8 4.0 1.6 1.1 0.1 0.1 0.1 0.3 0.7 5.1 13.8 19.5 3.2 0.0 0.1 0.2 0.4 0.3 0.2 0.0 0.0 0.0 0.0 0.0 0.0 0.3 0.4 0.4 0.0 0.1 0.0 0.1 0.3 nan 0.3 0.0 0.0 0.0 0.0 0.0 0.1 0.1
nan nan nan 0.1 3.3 9.1 17.3 21.7 18.2 14.1 8.0 6.2 5.2 3.2 4.8 3.6 5.3 7.4 6.6 0.9 9.2 15.0 10.6 0.4 0.1 0.0 0.1 0.2 0.0 0.0 0.0 0.0 0.0 0.0 0.0 0.2 0.0 0.3 0.5 0.7 0.9 0.0 0.0 0.0 0.0 0.0 0.0 0.0 0.0 0.3 4.9 0.1 0.0 0.1
0.9 nan 3.2 2.4 25.6 34.7 27.2 12.8 12.6 8.5 14.1 9.6 8.8 5.5 14.5 17.9 14.9 11.8 4.5 18.1 15.9 3.6 0.4 0.1 0.2 0.2 0.2 0.1 0.0 0.0 0.0 0.0 0.0 0.0 nan 0.0 0.4 0.6 0.6 0.9 1.6 3.6 3.0 3.1 1.4 0.6 0.3 0.3 0.3 0.3 0.4 0.5 0.4 0.4
nan 2.2 11.7 16.5 36.5 38.7 42.3 8.0 16.3 15.4 15.8 17.6 14.0 14.9 17.8 18.0 10.9 4.4 16.6 8.9 3.9 0.4 0.3 0.4 0.2 0.1 0.2 0.0 0.1 0.1 0.1 0.1 0.0 0.0 0.0 0.0 0.0 0.5 1.0 0.5 0.9 4.5 4.7 1.2 0.8 0.9 1.7 nan 0.5 0.5 0.7 0.7 1.0 1.1
nan 24.5 38.0 34.7 31.6 37.8 17.7 23.1 8.3 11.1 13.1 13.9 17.9 16.1 16.6 12.3 8.4 17.8 15.2 5.6 1.4 1.2 1.2 0.5 0.8 0.8 0.9 1.7 0.9 0.3 0.2 0.2 0.3 0.2 0.0 0.5 1.0 0.1 0.0 0.2 0.0 0.3 0.6 0.5 1.0 1.6 1.3 1.3 nan 1.4 2.0 2.6 3.0 2.8
49.4 69.9 34.5 54.5 24.7 22.9 13.9 11.7 15.1 8.7 11.1 9.9 12.3 14.6 14.1 9.9 15.5 17.7 10.0 7.4 2.9 2.4 1.8 1.2 1.1 1.0 2.0 1.7 0.2 0.3 0.1 0.6 0.5 0.7 0.5 0.6 0.3 0.3 1.7 0.8 0.1 0.2 0.8 5.2 1.6 1.8 2.3 2.6 2.2 2.9 3.2 3.3 4.1 4.5
64.3 32.3 43.0 15.5 18.9 10.2 7.9 10.3 8.3 9.1 7.0 11.2 11.6 8.9 11.5 11.0 16.3 18.4 6.3 5.6 5.6 4.2 4.1 3.9 3.4 1.9 0.5 0.5 0.4 0.4 0.2 0.5 0.6 0.9 0.9 1.0 1.0 3.6 5.2 2.7 2.6 1.1 0.6 0.6 3.2 4.1 3.5 3.7 4.4 4.6 4.8 4.2 nan 5.3
48.0 30.1 9.9 1.9 2.3 0.9 2.6 2.5 2.2 5.3 10.2 11.4 9.6 8.8 10.9 20.5 14.2 3.8 2.2 2.4 2.9 2.4 1.9 1.8 1.3 1.1 0.8 0.7 0.6 0.6 0.6 1.4 1.9 1.5 0.7 1.2 1.1 0.8 3.0 5.9 5.1 1.1 1.6 3.9 3.9 3.8 4.8 4.4 5.1 5.7 6.2 6.6 5.8 5.7
8.9 5.3 7.4 9.5 4.4 3.8 3.5 4.1 5.3 7.4 6.3 2.7 3.6 11.3 12.6 8.9 6.1 3.0 3.0 3.2 5.4 5.6 6.2 4.0 2.7 2.0 2.6 2.3 2.3 1.5 3.1 3.2 4.1 5.0 4.6 3.1 3.1 3.1 2.9 2.5 3.4 nan 4.0 4.9 5.5 5.8 6.0 5.6 7.3 6.7 6.3 7.4 6.5 5.3
9.2 6.7 4.3 9.8 7.9 8.6 10.0 8.4 6.5 3.0 0.3 2.0 6.3 5.2 4.2 1.8 5.4 5.5 2.7 4.6 7.0 8.1 8.0 6.8 7.2 6.8 6.1 4.6 5.1 6.7 6.1 6.0 6.9 6.3 4.1 3.7 4.1 5.8 6.0 5.4 7.6 7.9 6.9 7.9 nan nan 6.7 8.3 8.1 7.9 7.7 7.1 6.3 8.5
8.4 8.3 6.9 7.8 7.9 7.7 8.2 3.9 7.8 6.7 2.3 2.3 2.4 3.5 3.3 4.9 5.8 4.4 6.0 6.9 8.8 10.9 9.5 10.1 9.3 12.8 11.2 9.1 10.6 8.2 7.5 7.3 6.0 5.4 10.6 8.2 5.7 5.7 9.5 10.6 9.6 9.4 9.0 9.4 8.3 8.2 nan 9.6 nan 10.1 10.5 9.7 9.0 9.1
6.3 10.0 8.9 8.5 10.1 12.1 9.7 5.9 8.1 3.0 6.6 10.4 8.9 8.7 7.3 8.6 5.3 4.4 5.0 5.2 7.6 11.5 12.3 14.1 13.9 14.1 10.2 10.4 12.1 11.1 9.8 8.1 9.6 8.8 6.5 8.3 10.1 10.2 11.4 11.1 11.0 11.3 10.6 9.4 9.0 8.5 9.4 10.2 10.6 11.6 9.8 10.7 9.4 9.1
9.5 12.2 10.7 9.4 14.8 16.1 12.5 14.8 15.4 13.6 13.7 13.3 13.3 13.7 11.2 9.8 7.7 6.5 4.4 10.3 10.7 9.1 nan 10.0 8.1 6.7 6.5 6.7 5.7 6.7 nan 7.6 9.6 9.9 10.6 9.8 9.5 9.1 9.1 9.8 11.7 11.4 11.0 10.3 10.0 9.5 11.0 13.0 12.3 12.0 10.5 11.2 10.5 8.7
18.9 15.5 16.8 12.7 19.4 17.5 16.2 16.2 10.7 20.5 16.0 15.0 12.0 10.9 11.5 6.2 4.8 5.2 4.3 6.8 5.5 5.9 7.0 7.6 7.6 7.8 7.9 8.5 7.5 7.3 nan 8.7 9.5 nan nan nan nan nan 10.7 9.9 9.4 9.1 8.7 8.7 9.6 10.6 11.8 12.6 13.4 10.5 10.9 11.7 10.9 9.6